Regional Weather Roundup
Issued by NWS

Home | Current Version | Previous Version | Graphics & Text | Print | Product List | Glossary On
Versions: 1 2 3 4 5 6 7 8 9 10 11 12 13 14 15 16 17 18 19 20 21 22 23 24 25 26 27 28 29 30 31 32 33 34 35 36 37 38 39 40 41 42 43 44 45 46 47 48 49 50
000
ASUS43 KLMK 191402
RWRKY
KENTUCKY REGIONAL WEATHER ROUNDUP
NATIONAL WEATHER SERVICE LOUISVILLE KY
1000 AM EDT SUN APR 19 2015

NOTE "FAIR" INDICATES FEW OR NO CLOUDS BELOW 12,000 FEET
WITH NO SIGNIFICANT WEATHER AND/OR OBSTRUCTIONS TO VISIBILITY.

KYZ001>023-026-027-061>063-070>075-191500-
WESTERN AND SOUTH CENTRAL KENTUCKY

CITY           SKY/WX    TMP DP  RH WIND       PRES   REMARKS
PADUCAH        RAIN      65  63  93 SE5       29.63F FOG
HENDERSON      CLOUDY    61  57  88 E3        29.65F
OWENSBORO      RAIN      64  63  97 SE7       29.67F FOG
HOPKINSVILLE   LGT RAIN  65  64  97 SW2       29.65F FOG
BOWLING GREEN  HVY RAIN  65  63  93 E8        29.66F FOG
GLASGOW        NOT AVBL
$$

KYZ024-025-028>034-038-045-046-053-191500-
NORTH CENTRAL KENTUCKY

CITY           SKY/WX    TMP DP  RH WIND       PRES   REMARKS
LOUISVILLE/SDF LGT RAIN  61  59  93 E10       29.72F
LOUISVILLE/LOU LGT RAIN  60  58  92 E9        29.73F
FORT KNOX      LGT RAIN  63  62  96 E13       29.69F
$$

KYZ035>037-039>044-047>052-055>060-089>105-191500-
NORTHEAST KENTUCKY

CITY           SKY/WX    TMP DP  RH WIND       PRES   REMARKS
LEXINGTON      LGT RAIN  60  56  86 E9        29.78F
COVINGTON      LGT RAIN  61  50  67 SE7       29.80F
FRANKFORT      LGT RAIN  59  56  89 E5        29.76F
$$

KYZ054-064>069-076>088-106>120-191500-
SOUTHEAST KENTUCKY

CITY           SKY/WX    TMP DP  RH WIND       PRES   REMARKS
JACKSON        LGT RAIN  61  57  87 VRB3      29.84F
LONDON         LGT RAIN  63  59  87 E5        29.80F
SOMERSET       NOT AVBL
MIDDLESBORO    RAIN      63  61  95 CALM      29.82F
MONTICELLO     CLOUDY    65  64  96 SE12      29.76F FOG
$$



USA.gov is the U.S. government's official web portal to all federal, state and local government web resources and services.